Weather History for Rome, NY

Change the Weather History Date:

Tuesday, February 25, 2014

  Actual Average Record
Temperature  
Mean Temperature 13 °F -  
Max Temperature 19 °F 29 °F 45 °F (1984)
Min Temperature 7 °F 12 °F -18 °F (1993)
Degree Days  
Heating Degree Days 52    
Moisture  
Dew Point 10 °F    
Average Humidity 78    
Maximum Humidity 88    
Minimum Humidity 57    
Precipitation  
Precipitation 0.00 in - - ()
Sea Level Pressure  
Sea Level Pressure 30.00 in    
Wind  
Wind Speed 8 mph (WNW)    
Max Wind Speed 18 mph    
Max Gust Speed 28 mph    
Visibility 5 miles    
Events Snow    
Averages and records for this station are not official NWS values.
T = Trace of Precipitation, MM = Missing Value Source: NWS Daily Summary

Daily Weather History Graph

Daily Weather History Graph

Search for Another Location

Airport:

Trip Planner

Search our weather history database for the weather conditions in past years. The results will help you decide how hot, cold, wet, or windy it might be!

Date:

Astronomy

Feb. 25, 2014 Rise Set
Actual Time 6:44 AM EST 5:45 PM EST
Civil Twilight 6:15 AM EST 6:14 PM EST
Nautical Twilight 5:42 AM EST 6:47 PM EST
Astronomical Twilight 5:09 AM EST 7:20 PM EST
Moon 3:41 AM EST (2/25) 1:44 PM EST (2/25)
Length of Visible Light 11h 58m
Length of Day
11h 01m
Waning Crescent, 18% of the Moon is Illuminated
Feb 25
Waning Crescent
Mar 1
New
Mar 8
First Quarter
Mar 16
Full
Mar 23
Last Quarter

Hourly Weather History & Observations

Time (EST) Temp. Windchill Dew Point Humidity Pressure Visibility Wind Dir Wind Speed Gust Speed Precip Events Conditions
12:09 AM 17.1 °F 5.0 °F 12.9 °F 84% 30.03 in 2.0 mi WNW 10.4 mph - 0.00 in Snow Light Snow
12:20 AM 17.1 °F 3.0 °F 12.0 °F 81% 30.04 in 4.0 mi NW 13.8 mph - 0.00 in Snow Light Snow
12:31 AM 16.0 °F 2.3 °F 10.9 °F 81% 30.04 in 1.8 mi NW 12.7 mph - 0.00 in Snow Light Snow
12:53 AM 16.0 °F 5.3 °F 12.0 °F 84% 30.06 in 2.0 mi NNW 8.1 mph - 0.00 in Snow Light Snow
12:57 AM 16.0 °F 4.4 °F 12.0 °F 84% 30.04 in 1.8 mi NW 9.2 mph - 0.00 in Snow Light Snow
1:11 AM 15.1 °F 6.4 °F 10.9 °F 84% 30.04 in 2.5 mi NW 5.8 mph - 0.00 in Snow Light Snow
1:19 AM 15.1 °F 6.4 °F 10.9 °F 84% 30.04 in 3.0 mi NW 5.8 mph - 0.00 in Snow Light Snow
1:25 AM 15.1 °F 5.2 °F 10.9 °F 84% 30.04 in 1.8 mi NW 6.9 mph - 0.00 in Snow Light Snow
1:51 AM 15.8 °F 2.7 °F 8.6 °F 73% 30.04 in 3.0 mi NNW 11.5 mph - 0.00 in Snow Light Snow
1:53 AM 15.1 °F 2.5 °F 9.0 °F 77% 30.06 in 4.0 mi NNW 10.4 mph - 0.00 in Snow Light Snow
2:12 AM 14.0 °F 2.0 °F 9.0 °F 80% 30.03 in 4.0 mi NNW 9.2 mph - 0.00 in Snow Light Snow
2:53 AM 12.0 °F 4.1 °F 8.1 °F 84% 30.06 in 10.0 mi NW 4.6 mph - 0.00 in   Overcast
3:53 AM 12.9 °F 6.9 °F 8.1 °F 81% 30.04 in 10.0 mi NNW 3.5 mph - N/A   Overcast
4:53 AM 10.0 °F - 6.1 °F 84% 30.04 in 10.0 mi Calm Calm - N/A   Overcast
5:11 AM 10.9 °F - 8.1 °F 88% 30.02 in 1.8 mi Calm Calm - 0.00 in Snow Light Snow
5:22 AM 10.9 °F - 7.0 °F 84% 30.01 in 9.0 mi Calm Calm - 0.00 in   Overcast
5:53 AM 10.0 °F - 7.0 °F 87% 30.04 in 10.0 mi Calm Calm - 0.00 in   Overcast
6:36 AM 7.0 °F 0.1 °F 3.9 °F 87% 30.01 in 3.0 mi NW 3.5 mph - N/A   Overcast
6:53 AM 7.0 °F - 3.9 °F 87% 30.03 in 7.0 mi Calm Calm - N/A   Overcast
7:53 AM 8.1 °F - 3.9 °F 83% 30.04 in 10.0 mi Calm Calm - N/A   Overcast
8:14 AM 10.0 °F 3.6 °F 6.1 °F 84% 30.01 in 6.0 mi NW 3.5 mph - 0.00 in Snow Light Snow
8:53 AM 10.9 °F - 8.1 °F 88% 30.04 in 6.0 mi Calm Calm - 0.00 in Snow Light Snow
9:34 AM 12.9 °F 6.9 °F 5.0 °F 71% 30.01 in 5.0 mi West 3.5 mph - 0.00 in Snow Light Snow
9:53 AM 12.9 °F 5.2 °F 7.0 °F 77% 30.04 in 4.0 mi NW 4.6 mph - 0.00 in Snow Light Snow
10:31 AM 14.0 °F 6.5 °F 9.0 °F 80% 30.01 in 1.8 mi NW 4.6 mph - 0.00 in Snow Light Snow
10:40 AM 14.0 °F 8.2 °F 9.0 °F 80% 30.01 in 1.5 mi NW 3.5 mph - 0.00 in Snow Light Snow
10:53 AM 15.1 °F 9.4 °F 10.0 °F 80% 30.03 in 1.8 mi NNW 3.5 mph - 0.00 in Snow Light Snow
11:02 AM 15.1 °F 7.7 °F 9.0 °F 77% 30.01 in 2.5 mi NW 4.6 mph - 0.00 in Snow Light Snow
11:31 AM 15.1 °F - 10.0 °F 80% 30.00 in 4.0 mi Calm Calm - 0.00 in Snow Light Snow
11:37 AM 16.0 °F - 10.0 °F 77% 30.00 in 1.8 mi Calm Calm - 0.00 in Snow Light Snow
11:53 AM 16.0 °F 8.8 °F 10.9 °F 81% 30.01 in 2.5 mi NNW 4.6 mph - 0.00 in Snow Light Snow
12:21 PM 17.1 °F 7.6 °F 10.9 °F 77% 29.99 in 3.0 mi West 6.9 mph - 0.00 in Snow Light Snow
12:28 PM 16.0 °F 10.4 °F 10.9 °F 81% 29.98 in 2.0 mi West 3.5 mph - 0.00 in Snow Light Snow
12:35 PM 17.1 °F - 12.0 °F 81% 29.97 in 0.8 mi Calm Calm - 0.00 in Snow Light Snow
12:40 PM 18.0 °F 12.7 °F 12.9 °F 81% 29.97 in 2.0 mi NNW 3.5 mph - 0.00 in Snow Light Snow
12:47 PM 19.4 °F - 12.2 °F 74% 29.96 in 7.0 mi Calm Calm - 0.00 in Snow Light Snow
12:48 PM 19.0 °F 13.9 °F 12.0 °F 74% 29.99 in 8.0 mi Variable 3.5 mph - 0.00 in Snow Light Snow
12:50 PM 19.0 °F 13.9 °F 12.0 °F 74% 29.96 in 9.0 mi Variable 3.5 mph - 0.00 in Snow Light Snow
12:59 PM 19.0 °F 4.5 °F 9.0 °F 65% 29.96 in 9.0 mi WSW 16.1 mph 21.9 mph 0.00 in Snow Light Snow
1:53 PM 19.0 °F 4.0 °F 10.0 °F 68% 29.98 in 2.0 mi WSW 17.3 mph - 0.00 in Snow Light Snow
2:09 PM 19.0 °F 5.0 °F 10.9 °F 71% 29.95 in 1.5 mi West 15.0 mph - 0.00 in Snow Light Snow
2:27 PM 19.9 °F 5.7 °F 10.9 °F 68% 29.95 in 3.0 mi West 16.1 mph 25.3 mph 0.00 in Snow Light Snow
2:46 PM 19.9 °F 4.8 °F 8.1 °F 60% 29.94 in 5.0 mi West 18.4 mph 27.6 mph 0.00 in Snow Light Snow
2:53 PM 19.9 °F 6.7 °F 7.0 °F 57% 29.97 in 6.0 mi West 13.8 mph 27.6 mph 0.00 in Snow Light Snow
3:33 PM 18.0 °F 2.6 °F 12.0 °F 78% 29.95 in 2.5 mi NW 17.3 mph - 0.00 in Snow Light Snow
3:41 PM 18.0 °F 3.6 °F 12.0 °F 78% 29.95 in 3.0 mi WNW 15.0 mph - 0.00 in Snow Light Snow
3:53 PM 19.0 °F 6.8 °F 12.0 °F 74% 29.97 in 2.5 mi WNW 11.5 mph - 0.00 in Snow Light Snow
4:06 PM 18.0 °F 5.4 °F 12.0 °F 78% 29.95 in 2.0 mi WNW 11.5 mph - 0.00 in Snow Light Snow
4:13 PM 18.0 °F 4.2 °F 12.0 °F 78% 29.95 in 1.5 mi WNW 13.8 mph - 0.00 in Snow Light Snow
4:53 PM 18.0 °F 5.4 °F 12.0 °F 78% 29.99 in 1.8 mi WNW 11.5 mph - 0.00 in Snow Light Snow
4:59 PM 18.0 °F 4.2 °F 12.0 °F 78% 29.96 in 3.0 mi WNW 13.8 mph - 0.00 in Snow Light Snow
5:09 PM 18.0 °F 4.8 °F 12.0 °F 78% 29.97 in 1.8 mi West 12.7 mph - 0.00 in Snow Light Snow
5:19 PM 18.0 °F 4.2 °F 10.9 °F 74% 29.97 in 3.0 mi West 13.8 mph - 0.00 in Snow Light Snow
5:43 PM 18.0 °F 5.4 °F 10.9 °F 74% 29.96 in 7.0 mi West 11.5 mph - 0.00 in   Overcast
5:53 PM 18.0 °F 6.1 °F 10.0 °F 71% 29.99 in 6.0 mi West 10.4 mph - 0.00 in Snow Light Snow
6:53 PM 17.1 °F 6.6 °F 12.0 °F 81% 29.99 in 5.0 mi West 8.1 mph - 0.00 in Snow Light Snow
7:53 PM 16.0 °F 8.8 °F 10.9 °F 81% 30.00 in 10.0 mi West 4.6 mph - 0.00 in   Mostly Cloudy
8:53 PM 16.0 °F 6.3 °F 7.0 °F 68% 29.99 in 10.0 mi West 6.9 mph - N/A   Overcast
9:53 PM 17.1 °F 5.8 °F 6.1 °F 62% 29.98 in 10.0 mi West 9.2 mph - N/A   Overcast
10:53 PM 16.0 °F 8.8 °F 6.1 °F 65% 29.96 in 10.0 mi SW 4.6 mph - N/A   Overcast
11:53 PM 15.1 °F 6.4 °F 8.1 °F 74% 29.93 in 6.0 mi SSW 5.8 mph - 0.00 in   Haze